EW2692 Weather Reports


time (UTC)temp
F
wind
direction
speed
knots
gust
knots
rain 1hr
in
rain 24hr
in
rain mn
in
humidity
%
barometer
mb
20260502180124 65 333 5.2 12.2 0.00 0.00 0.00 38 942.0
20260502163050 63 298 6.1 12.2 0.00 0.00 0.00 38 941.5
20260502161546 62 315 4.3 10.4 0.00 0.00 0.00 41 941.3
20260502151535 59 302 1.7 8.7 0.00 0.00 0.00 47 941.1
20260502123008 46 280 0.0 0.9 0.00 0.00 0.00 64 940.5
20260502121508 46 280 0.0 1.7 0.00 0.00 0.00 63 940.4
20260502114506 47 279 1.7 7.8 0.00 0.00 0.00 59 940.3
20260502113012 48 271 2.6 7.8 0.00 0.00 0.00 59 940.1
20260502111504 48 264 0.9 3.5 0.00 0.00 0.00 59 939.9
20260502110003 46 268 0.9 3.5 0.00 0.00 0.00 60 939.8
20260502104502 46 275 0.0 1.7 0.00 0.00 0.00 58 939.8
20260502103001 47 276 0.0 0.9 0.00 0.00 0.00 56 939.7
20260502101621 48 276 0.0 1.7 0.00 0.00 0.00 53 939.7
20260502100116 49 277 0.0 1.7 0.00 0.00 0.00 51 940.0
20260502071534 47 153 0.0 0.0 0.00 0.00 0.00 48 940.4
20260502070033 48 153 0.0 1.7 0.00 0.00 0.00 46 940.4
20260502064539 48 148 0.0 4.3 0.00 0.00 0.00 45 940.4
20260502063031 47 156 0.0 4.3 0.00 0.00 0.00 46 940.4
20260502061528 47 158 0.0 2.6 0.00 0.00 0.00 46 940.5
20260502060027 47 146 0.9 2.6 0.00 0.00 0.00 46 940.6
20260502054525 47 125 0.9 2.6 0.00 0.00 0.00 45 940.6
20260502053027 47 135 0.0 1.7 0.00 0.00 0.00 46 940.8
20260502051522 47 135 0.0 1.7 0.00 0.00 0.00 44 940.9
20260502050026 47 126 0.0 2.6 0.00 0.00 0.00 44 941.0
20260502044519 45 129 0.0 1.7 0.00 0.00 0.00 47 941.1
20260502043021 44 136 0.0 0.9 0.00 0.00 0.00 48 941.2
20260502041517 46 136 0.0 0.9 0.00 0.00 0.00 45 941.3
20260502040022 48 136 0.0 1.7 0.00 0.00 0.00 42 941.4
20260502034515 48 142 0.0 1.7 0.00 0.00 0.00 41 941.6
20260502033013 49 145 0.0 2.6 0.00 0.00 0.00 39 941.7
20260502031512 49 190 0.0 1.7 0.00 0.00 0.00 39 941.7
20260502030012 49 192 0.0 1.7 0.00 0.00 0.00 39 941.7
20260502024510 51 192 0.0 1.7 0.00 0.00 0.00 37 941.7
20260502023009 53 192 0.9 1.7 0.00 0.00 0.00 36 941.8
20260502021508 57 192 0.0 1.7 0.00 0.00 0.00 33 941.8
20260502020015 61 192 0.0 1.7 0.00 0.00 0.00 29 941.8
20260502014505 64 192 0.9 2.6 0.00 0.00 0.00 25 942.0
20260502013004 66 192 0.9 4.3 0.00 0.00 0.00 22 942.0
20260502011512 68 196 1.7 6.1 0.00 0.00 0.00 21 942.1
20260502010001 69 202 0.9 6.1 0.00 0.00 0.00 20 942.2
20260502004501 69 185 2.6 8.7 0.00 0.00 0.00 20 942.4
20260502003059 69 190 2.6 7.8 0.00 0.00 0.00 19 942.4
20260502001557 69 205 2.6 7.8 0.00 0.00 0.00 19 942.6
20260502000112 70 253 1.7 7.0 0.00 0.00 0.00 19 942.8
20260501234555 70 212 3.5 7.8 0.00 0.00 0.00 18 942.8
20260501233053 69 243 2.6 10.4 0.00 0.00 0.00 18 942.8
20260501231601 69 258 2.6 8.7 0.00 0.00 0.00 20 943.0
20260501230050 70 209 2.6 7.0 0.00 0.00 0.00 19 943.1
20260501224558 69 257 2.6 8.7 0.00 0.00 0.00 20 943.1
20260501223046 70 225 3.5 7.0 0.00 0.00 0.00 20 943.3
20260501221605 69 204 2.6 7.8 0.00 0.00 0.00 19 943.5
20260501220048 70 209 2.6 7.8 0.00 0.00 0.00 21 943.6
20260501214541 69 190 2.6 7.8 0.00 0.00 0.00 21 943.9
20260501213041 69 226 2.6 10.4 0.00 0.00 0.00 20 944.0
20260501211537 69 190 4.3 10.4 0.00 0.00 0.00 20 944.3
20260501210036 69 264 4.3 10.4 0.00 0.00 0.00 21 944.3
20260501204533 68 223 2.6 7.0 0.00 0.00 0.00 22 944.4
20260501203032 67 223 3.5 12.2 0.00 0.00 0.00 23 944.6
20260501201530 68 160 2.6 7.8 0.00 0.00 0.00 23 944.7
20260501200027 67 200 1.7 8.7 0.00 0.00 0.00 26 944.7
20260501194529 66 223 2.6 10.4 0.00 0.00 0.00 24 944.7
20260501193035 66 196 0.9 12.2 0.00 0.00 0.00 23 944.9
20260501191531 65 185 1.7 8.7 0.00 0.00 0.00 25 945.1
20260501190045 65 200 2.6 10.4 0.00 0.00 0.00 24 945.2
20260501184532 66 182 0.9 7.0 0.00 0.00 0.00 26 945.2
20260501183020 65 198 1.7 7.0 0.00 0.00 0.00 28 945.4
20260501181514 63 188 1.7 6.1 0.00 0.00 0.00 27 945.5